Lexington Weather

Lexington, Massachusetts, USA

40°F
3/2/2024 8:59am 
  • Lexington Conditions: Overcast
  • Temperature: 39.6°F / 4.2°CWarmer 1.8°F than last hour.
  • Dew Point: 33.6°FIncreased 1.1°Fsince last hour.
  • Relative Humidity: 79%Decreased 2.0% since last hour.
  • Wind: Calm, 10-min avg: Calm, gust: None
  • Barometer: 30.45 in Steady
  • Visibility: 10 miles
  • Rain Today: 0.00 in
  •   

Regional Weather Roundup
for Boston, MA

        
000
ASUS41 KBOX 280010
RWRBOX

REGIONAL WEATHER ROUNDUP
NATIONAL WEATHER SERVICE BOSTON/NORTON MA
700 PM EST TUE FEB 27 2024

NOTE:  "FAIR" INDICATES FEW OR NO CLOUDS BELOW 12,000 FEET WITH NO 
SIGNIFICANT WEATHER AND/OR OBSTRUCTIONS TO VISIBILITY.

MAZALL-280100-
EASTERN MASSACHUSETTS
  
CITY           SKY/WX    TMP DP  RH WIND       PRES   REMARKS
BOSTON         MOCLDY    49  42  77 S15       29.97F                  
6HR MIN TEMP:  40; 6HR MAX TEMP:  50; 6HR PCP: TRACE;                

BEVERLY        MOCLDY    44  39  82 SE8       29.96F                  
LAWRENCE       MOCLDY    49  38  65 SE8       29.96F                  
BEDFORD        MOCLDY    51  39  63 S14       29.94S                  
NORWOOD        MOCLDY    51  42  71 S12       29.97F                  
MARSHFIELD     MOCLDY    50  45  81 SW13G20   29.99F                  
PLYMOUTH       MOCLDY    49  44  83 VRB5      30.00F                  
TAUNTON        MOCLDY    50  42  74 VRB5      30.00F                  
NEW BEDFORD    MOCLDY    48  45  89 S9        30.01F                  
$$

MAZALL-280100-
CAPE COD AND THE ISLANDS
  
CITY           SKY/WX    TMP DP  RH WIND       PRES   REMARKS
FALMOUTH       NOT AVBL                                               
HYANNIS        PTCLDY    46  43  89 S13G22    30.03S                  
CHATHAM        PTCLDY    49  30  48 S8        30.06F                  
PROVINCETOWN   MOCLDY    46  44  93 S10G18    30.03F                  
NANTUCKET      MOCLDY    46  44  93 S18       30.08S                  
MARTHAS VNYRD  MOCLDY    48  46  93 S17       30.04S                  
$$
 
MAZALL-280100-
CENTRAL AND WESTERN MASSACHUSETTS
  
CITY           SKY/WX    TMP DP  RH WIND       PRES   REMARKS
WORCESTER      MOCLDY    51  38  60 S16       29.92F                  
6HR MIN TEMP:  51; 6HR MAX TEMP:  62;                                

FITCHBURG      MOCLDY    55  38  52 SE8       29.92F                  
ORANGE         MOCLDY    52  37  56 SE3       29.89F                  
SPRINGFIELD    MOCLDY    53  37  53 SW13      29.87R                  
WESTFIELD      CLOUDY    52  40  63 S14G22    29.90R                  
NORTH ADAMS    CLOUDY    57  38  48 E21G30    29.83F                  
PITTSFIELD     CLOUDY    52  36  54 SE13G21   29.83S                  
$$
 
RIZALL-280100-
RHODE ISLAND
  
CITY           SKY/WX    TMP DP  RH WIND       PRES   REMARKS
PROVIDENCE     MOCLDY    44  43  96 SE7       30.00S                  
6HR MIN TEMP:  44; 6HR MAX TEMP:  54;                                

NEWPORT        MOCLDY    48  46  93 S12       30.00F                  
BLOCK ISLAND   CLOUDY    47  46  97 S18G24    30.00F                  
SMITHFIELD       N/A    N/A N/A N/A MISG        N/A                   
WESTERLY       CLOUDY    46  42  86 S8        30.00S                  
$$
 
CTZALL-280100-
CONNECTICUT
  
CITY           SKY/WX    TMP DP  RH WIND       PRES   REMARKS
BRADLEY INTL   CLOUDY    51  41  68 S17       29.93R                  
6HR MIN TEMP:  51; 6HR MAX TEMP:  62;                                

HARTFORD       CLOUDY    50  42  74 S10       29.94R                  
PLAINVILLE     FAIR      49  44  83 S10       29.92R                  
BRIDGEPORT     CLOUDY    48  43  82 SW5       29.94R                  
DANBURY        LGT RAIN  50  41  71 S10       29.93R                  
GROTON         CLOUDY    47  45  93 S9        29.97F                  
NEW HAVEN      CLOUDY    49  43  80 E5        29.94S                  
CHESTER        CLOUDY    48  45  87 S7        29.96R                  
MERIDEN        CLOUDY    49  41  74 S5        29.93S                  
WILLIMANTIC    MOCLDY    48  42  80 S5        29.95F                  
OXFORD         CLOUDY    47  42  83 S10       29.93R                  
$$

MEZ002-015-021-024-NHZ003-005-008-011-012-014-VTZ005-008-280100-
NORTHERN NEW ENGLAND
  
CITY           SKY/WX    TMP DP  RH WIND       PRES   REMARKS
PORTLAND ME    FOG       38  38 100 E3        30.00F VSB 1/2          
6HR MIN TEMP:  37; 6HR MAX TEMP:  45;                                

BANGOR ME      CLOUDY    40  38  93 S10       30.04S                  
CONCORD NH     MOCLDY    45  37  73 E7        29.92F                  
MANCHESTER NH  MOCLDY    49  38  65 E7        29.92F                  
NASHUA NH      MOCLDY    52  40  63 SE5       29.93F                  
PORTSMOUTH NH  FOG       40  38  95 NE5       29.97F VSB 1/4          
JAFFREY NH     MOCLDY    52  36  54 S6        29.89F                  
KEENE NH       MOCLDY    44  36  73 SW3       29.87F                  
BURLINGTON VT  MOCLDY    54  34  46 SE9       29.74F                  
MT. WASHINGTON PTCLDY    32  30  93 S51         N/A  WCI  14          
$$

NYZ052-076-280100-
EASTERN NEW YORK
  
CITY           SKY/WX    TMP DP  RH WIND       PRES   REMARKS
ALBANY         CLOUDY    58  38  47 S14G23    29.80S                  
6HR MIN TEMP:  57; 6HR MAX TEMP:  66;                                

NEW YORK CITY  RAIN      50  44  80 S10       29.93R                  
6HR MIN TEMP:  44; 6HR MAX TEMP:  54; 6HR PCP:  0.10;                

$$
 
ANZALL-280100-
MARINE OBSERVATIONS
  
STATION/POSITION TIME  TEMP    WIND        PRES    VSBY  WAVE
                       AIR SEA DIR/SP/G                  HT/PER
                 (UTC) (F)     (DEG/KT/KT) (MB)    (MI)  (FT/S)
BOSTON BUOY      2350   44 40  150/ 14/ 17 1015.4F         3/ 3
BUZZARDS BAY     2300   46     180/ 23/ 24 1016.7F
NANTUCKET SOUND  2350   46 38  170/ 16/ 17 1017.4R         1/ 3
MASS BAY-STELLWA 2204   45 40  160/ 14/ 16 1015.5F  1 7/8  1/ 3
ISLE OF SHOALS   2300   41     100/  8/  9 1014.8F
S OF BLOCK IS    2356      42                N/A           5/ 7
$$

......................KEY.........................
  SKY/WX - SKY CONDITION/PRESENT WEATHER
  TMP    - TEMPERATURE IN FAHRENHEIT
  DWPT   - DEWPOINT IN FAHRENHEIT
  RH     - RELATIVE HUMIDITY IN PERCENT
  WIND   - DIRECTION AND SPEED IN MPH
  PRES   - MEAN SEA LEVEL PRESSURE IN INCHES OF HG
  WCI    - WIND CHILL INDEX
  VSB    - VISIBILITY IN MILES
  HX     - HEAT INDEX
  TC     - TEMPERATURE IN CELSIUS
  VRB    - VARIABLE WIND DIRECTION
  N/A    - NOT AVAILABLE
  
      

Other recent Regional Weather Roundups

Sat Mar 2, 8:10am EST

Sat Mar 2, 7:10am EST

Sat Mar 2, 6:10am EST

Sat Mar 2, 5:10am EST

Sat Mar 2, 4:10am EST

Sat Mar 2, 3:10am EST

Sat Mar 2, 2:10am EST

Sat Mar 2, 1:10am EST

Sat Mar 2, 12:10am EST

Fri Mar 1, 11:10pm EST

Fri Mar 1, 10:10pm EST

Fri Mar 1, 9:10pm EST

Fri Mar 1, 8:10pm EST

Fri Mar 1, 7:10pm EST

Fri Mar 1, 6:10pm EST

Fri Mar 1, 5:10pm EST

Fri Mar 1, 4:10pm EST

Fri Mar 1, 3:10pm EST

Fri Mar 1, 2:10pm EST

Fri Mar 1, 1:10pm EST

Fri Mar 1, 12:10pm EST

Fri Mar 1, 11:10am EST

Fri Mar 1, 10:10am EST

Fri Mar 1, 9:10am EST

Fri Mar 1, 8:10am EST

Fri Mar 1, 7:10am EST

Fri Mar 1, 6:10am EST

Fri Mar 1, 5:10am EST

Fri Mar 1, 4:10am EST

Fri Mar 1, 3:10am EST

Fri Mar 1, 2:10am EST

Fri Mar 1, 1:10am EST

Fri Mar 1, 12:10am EST

Thu Feb 29, 11:10pm EST

Thu Feb 29, 10:10pm EST

Thu Feb 29, 9:10pm EST

Thu Feb 29, 8:10pm EST

Thu Feb 29, 7:10pm EST

Thu Feb 29, 6:10pm EST

Thu Feb 29, 5:10pm EST

Thu Feb 29, 4:10pm EST

Thu Feb 29, 3:10pm EST

Thu Feb 29, 2:10pm EST

Thu Feb 29, 1:10pm EST

Thu Feb 29, 12:10pm EST

Thu Feb 29, 11:10am EST

Thu Feb 29, 10:10am EST

Thu Feb 29, 9:10am EST

Thu Feb 29, 8:10am EST

Thu Feb 29, 7:10am EST

Thu Feb 29, 6:10am EST

Thu Feb 29, 5:10am EST

Thu Feb 29, 4:10am EST

Thu Feb 29, 3:10am EST

Thu Feb 29, 2:10am EST

Thu Feb 29, 1:10am EST

Thu Feb 29, 12:10am EST

Wed Feb 28, 11:10pm EST

Wed Feb 28, 10:10pm EST

Wed Feb 28, 9:10pm EST

Wed Feb 28, 8:10pm EST

Wed Feb 28, 7:10pm EST

Wed Feb 28, 6:10pm EST

Wed Feb 28, 5:10pm EST

Wed Feb 28, 4:10pm EST

Wed Feb 28, 3:10pm EST

Wed Feb 28, 2:10pm EST

Wed Feb 28, 1:10pm EST

Wed Feb 28, 12:10pm EST

Wed Feb 28, 11:10am EST

Wed Feb 28, 10:10am EST

Wed Feb 28, 9:10am EST

Wed Feb 28, 8:10am EST

Wed Feb 28, 7:10am EST

Wed Feb 28, 6:10am EST

Wed Feb 28, 5:10am EST

Wed Feb 28, 4:10am EST

Wed Feb 28, 3:10am EST

Wed Feb 28, 2:10am EST

Wed Feb 28, 1:10am EST

Wed Feb 28, 12:10am EST

Tue Feb 27, 11:10pm EST

Tue Feb 27, 10:10pm EST

Tue Feb 27, 9:10pm EST

Tue Feb 27, 8:10pm EST

Tue Feb 27, 6:10pm EST

Tue Feb 27, 5:10pm EST

Tue Feb 27, 4:10pm EST

Tue Feb 27, 3:10pm EST

Tue Feb 27, 2:10pm EST

Tue Feb 27, 1:10pm EST

Tue Feb 27, 12:10pm EST

Tue Feb 27, 11:10am EST

Tue Feb 27, 10:10am EST

Tue Feb 27, 9:10am EST

Tue Feb 27, 8:10am EST

Tue Feb 27, 7:10am EST

Tue Feb 27, 6:10am EST

Tue Feb 27, 5:10am EST

Tue Feb 27, 4:10am EST

Tue Feb 27, 3:10am EST

Tue Feb 27, 2:10am EST

Tue Feb 27, 1:10am EST

Tue Feb 27, 12:10am EST

Mon Feb 26, 11:10pm EST

Mon Feb 26, 10:10pm EST

Mon Feb 26, 9:10pm EST

Mon Feb 26, 8:10pm EST

Mon Feb 26, 7:10pm EST

Mon Feb 26, 6:10pm EST

Mon Feb 26, 5:10pm EST

Mon Feb 26, 4:10pm EST

Mon Feb 26, 3:10pm EST

Mon Feb 26, 2:10pm EST

Mon Feb 26, 1:10pm EST

Mon Feb 26, 12:10pm EST

Mon Feb 26, 11:10am EST

Mon Feb 26, 10:10am EST

Mon Feb 26, 9:10am EST

Mon Feb 26, 8:10am EST

Mon Feb 26, 7:10am EST

Mon Feb 26, 6:10am EST

Mon Feb 26, 5:10am EST

Mon Feb 26, 4:10am EST

Mon Feb 26, 3:10am EST

Mon Feb 26, 2:10am EST

Mon Feb 26, 1:10am EST

Mon Feb 26, 12:10am EST

Sun Feb 25, 11:10pm EST

Sun Feb 25, 10:10pm EST

Sun Feb 25, 9:10pm EST

Sun Feb 25, 8:10pm EST

Sun Feb 25, 7:10pm EST

Sun Feb 25, 6:10pm EST

Sun Feb 25, 5:10pm EST

Sun Feb 25, 4:10pm EST

Sun Feb 25, 3:10pm EST

Sun Feb 25, 2:10pm EST

Sun Feb 25, 1:10pm EST

Sun Feb 25, 12:10pm EST

Sun Feb 25, 11:10am EST

Sun Feb 25, 10:10am EST

Sun Feb 25, 9:10am EST

Sun Feb 25, 8:10am EST

Sun Feb 25, 7:10am EST

Sun Feb 25, 6:10am EST

Sun Feb 25, 5:10am EST

Sun Feb 25, 4:10am EST

Sun Feb 25, 3:10am EST

Sun Feb 25, 2:10am EST

Sun Feb 25, 1:10am EST

Sun Feb 25, 12:10am EST

Sat Feb 24, 11:10pm EST

Sat Feb 24, 10:10pm EST

Sat Feb 24, 9:10pm EST

Sat Feb 24, 8:10pm EST

Sat Feb 24, 7:10pm EST

Sat Feb 24, 6:10pm EST

Sat Feb 24, 5:10pm EST

Sat Feb 24, 4:10pm EST

Sat Feb 24, 3:10pm EST

Sat Feb 24, 2:10pm EST

Sat Feb 24, 1:10pm EST

Sat Feb 24, 12:10pm EST

Sat Feb 24, 11:10am EST

Sat Feb 24, 10:10am EST

Sat Feb 24, 9:10am EST